Location: Franzen
(48.6167°N, 15.3833°E)
Time: 09:20:45
(UTC+00:00)

TSX-5 - Pass Details

Date: 22 April 2021
Orbit: 404 x 1320 km, 68.9° (Epoch: 16 May)

Event Time Altitude Azimuth Distance (km) Brightness Sun altitude
Exits shadow 20:18:56 45° 153° (SSE) 885 4.4 -19.6°
Maximum altitude 20:19:45 51° 117° (ESE) 791 4.2 -19.7°
Drops below altitude 10° 20:23:38 10° 42° (NE) 1,805 6.5 -20.1°
Sets 20:25:36 0° 37° (NE) 2,601 7.4 -20.3°
